OKEAN-0
1 25860U 99039A 11173.52532202 .00000112 00000-0 24495-4 0 3407
2 25860 097.8853 139.8233 0001272 039.3497 320.7804 14.73795459641446
NOAA-16
1 26536U 00055A 11173.53080197 -.00000243 00000-0 -10606-3 0 3416
2 26536 099.1387 204.1814 0010770 022.6949 337.4696 14.12624718554118
NOAA-17
1 27453U 02032A 11173.44507397 -.00000006 00000-0 15132-4 0 3302
2 27453 098.3779 212.9143 0012540 130.9044 229.3237 14.24283886467406
NOAA-18
1 28654U 05018A 11173.41655203 .00000452 00000-0 27376-3 0 8109
2 28654 098.9960 124.5763 0015252 089.6572 270.6335 14.11487098313666
NOAA-19
1 33591U 09005A 11173.41487868 -.00000071 00000-0 -15241-4 0 15
2 33591 098.8261 113.4816 0013798 325.6694 034.3582 14.11175692122124
HUBBLE
1 20580U 90037B 11180.74813243 .00000769 00000-0 45480-4 0 7891
2 20580 028.4727 294.4017 0003480 252.1362 107.8827 15.01409579961549
ISS
1 25544U 98067A 11182.05639476 -.00003910 00000-0 -39610-4 0 6314
2 25544 051.6422 090.7842 0007882 292.9233 206.8702 15.60874739723071
CO-58
1 28895U 05043F 11180.67453277 .00000091 00000-0 28229-4 0 09117
2 28895 097.9660 056.5812 0017788 178.2449 181.8826 14.60122839302065
FALCON
1 30776U 07006E 11173.55069084 .00001314 00000-0 94428-4 0 1123
2 30776 035.4349 314.3657 0000316 059.4625 300.6144 15.04692566235858
MAST
1 31126U 07012K 11173.54201737 .00000330 00000-0 84221-4 0 1905
2 31126 097.8945 200.4658 0095185 153.4065 207.2049 14.53760317221864
CAPE1
1 31130U 07012P 11180.62918386 .00000206 00000-0 57460-4 0 02124
2 31130 097.8983 203.9015 0102980 142.2882 218.5572 14.52411290222444
COMPASS
1 32787U 08021E 11180.76519384 .00000740 00000-0 98557-4 0 00251
2 32787 097.8474 244.3485 0016455 132.7005 227.5546 14.82470036171428
AAUSAT2
1 32788U 08021F 11173.64105533 .00000901 00000-0 11820-3 0 96
2 32788 097.8470 237.5825 0015696 155.2374 204.9533 14.82645614170387
DO-64
1 32789U 08021G 11180.73282105 .00000931 00000-0 12039-3 0 00317
2 32789 097.8571 245.5721 0016271 130.8922 229.3709 14.83146593171449
CO-66
1 32791U 08021J 11180.71700236 .00000112 00000-0 20669-4 0 00206
2 32791 097.8476 244.2373 0016953 131.4383 228.8270 14.82151842171360
RS-30
1 32953U 08025A 11173.45977334 .00000010 00000-0 00000 0 0 8418
2 32953 082.5007 159.4452 0019749 019.7868 340.3973 12.43013814139745
TACSAT-3
1 35001U 09028A 11173.85916380 .00012546 00000-0 22589-3 0 6243
2 35001 040.4530 138.2964 0023122 255.4349 104.3906 15.49233901117966
PHARMSAT
1 35002U 09028B 11180.92021280 .00009739 00000-0 17790-3 0 05861
2 35002 040.4690 093.2204 0025650 311.4500 048.4073 15.48946266119083
HAWKSAT1
1 35003U 09028C 11181.85997355 .00049667 00000-0 43974-3 0 6723
2 35003 040.4593 056.3210 0020538 334.5175 025.4316 15.67447219119571
CP6
1 35004U 09028D 11180.92821697 .00099682 00000-0 62063-3 0 06728
2 35004 040.4524 052.4083 0021225 335.2459 024.7283 15.75497843119525
METEOR-M
1 35865U 09049A 11173.78103354 .00000176 00000-0 10000-3 0 4806
2 35865 098.7057 228.8375 0003339 026.8609 333.2689 14.21839888 91386
RS-38
1 35869U 09049E 11180.88703899 .00000177 00000-0 10000-3 0 04967
2 35869 098.7022 235.8860 0004889 006.3205 353.8024 14.22015250092400
